Regional Weather Roundup
Issued by NWS

Home | Current Version | Previous Version | Graphics & Text | Print | Product List | Glossary On
Versions: 1 2 3 4 5 6 7 8 9 10 11 12 13 14 15 16 17 18 19 20 21 22 23 24 25 26 27
000
ASUS45 KBOU 231507
RWRCO

WEATHER ROUNDUP FOR COLORADO
NATIONAL WEATHER SERVICE DENVER/BOULDER CO
800 AM MST MON JAN 23 2017

NOTE: "FAIR" INDICATES FEW OR NO CLOUDS BELOW 12000 FEET WITH NO
SIGNIFICANT WEATHER AND/OR OBSTRUCTIONS TO VISIBILITY.

COZ001>005-013-030-031-231600-
...NORTHWEST COLORADO...

CITY           SKY/WX    TMP DP  RH WIND       PRES   REMARKS
CRAIG          CLOUDY    31  25  78 E3        29.65F
HAYDEN         CLOUDY    25  19  80 SE10      29.65F WCI  15
MEEKER         CLOUDY    34  26  72 W7        29.65S WCI  28
MOUNT WERNER   NOT AVBL
STEAMBOAT SPGS CLOUDY    23  21  94 CALM      29.65S
WALDEN           N/A     25  21  86 S9        29.64F WCI  15
$$

COZ006>008-011-231600-
...WEST CENTRAL VALLEYS...

CITY           SKY/WX    TMP DP  RH WIND       PRES   REMARKS
GRAND JUNCTION CLOUDY    38  29  70 SE16      29.71F
MONTROSE       FAIR      38  26  62 CALM      29.76F
EAGLE          FLURRIES  25  25 100 CALM      29.72F
RIFLE          CLOUDY    30  28  92 E5        29.71F WCI  25
DELTA          MOCLDY    37  29  74 NE8       29.76F
NUCLA          MOCLDY    37  28  70 S17G26    29.79F
$$

COZ017>023-064>068-231600-
...SOUTHWEST COLORADO...

CITY           SKY/WX    TMP DP  RH WIND       PRES   REMARKS
DURANGO        CLOUDY    25  22  88 E5        29.90F WCI  19
CORTEZ         CLOUDY    34  27  75 NW3       29.84F
PAGOSA SPRINGS CLOUDY    24  24  99 CALM      29.91F
TELLURIDE      NOT AVBL
WOLF CREEK PAS CLOUDY    12  12 100 SW20G39   29.85S WCI  -6
$$

COZ009-010-012-014-032>034-037-058>063-231600-
...CENTRAL COLORADO...

CITY           SKY/WX    TMP DP  RH WIND       PRES   REMARKS
ASPEN          FLURRIES  27  24  89 S6        29.68F WCI  20
BUENA VISTA    LGT SNOW  26  20  76 SE14G23   29.72S WCI  15
COPPER MTN     SNOW      23  16  74 MISG      29.68F VSB<1/4
BERTHOUD PASS  CLOUDY    12   3  67 MISG      29.63F
COTTONWOOD PAS SNOW      25  23  93 CALM      29.71R VSB 1/2
GUNNISON       FAIR       9   7  92 VRB3      29.79S
KREMMLING      LGT SNOW  34  28  80 SW10      29.68F WCI  26
LEADVILLE      LGT SNOW  22  18  85 N7        29.67F FOG     WCI  13
MONARCH PASS   CLOUDY    14  12  92 MISG      29.80R
SALIDA         CLOUDY    30  19  64 S17G26    29.82S WCI  18
SUNLIGHT       CLOUDY    19  18  93 SW24G39   29.69F WCI   2
WILKERSON PASS CLOUDY   N/A N/A N/A SW13G26   29.71R FOG
$$

COZ069>075-231600-
...SAN LUIS VALLEY/SANGRE DE CRISTO MOUNTAINS...

CITY           SKY/WX    TMP DP  RH WIND       PRES   REMARKS
ALAMOSA        FAIR      26  19  74 SW18      29.82F WCI  13
LA VETA PASS   CLOUDY    21  18  86 N20G44    29.76R WCI   6
SAGUACHE       FAIR      12   9  85 N5        29.82F WCI   4
$$

COZ035-036-038>040-231600-
...NORTHERN COLORADO FRONT RANGE...

CITY           SKY/WX    TMP DP  RH WIND       PRES   REMARKS
DENVER INTL AP FAIR      31  16  54 W7        29.63R WCI  24
DMNS CITY PARK   N/A     29  17  62 MISG      29.64S
AURORA         PTCLDY    32  20  59 W3        29.64R
FRONT RANGE AP NOT AVBL
ERIE MUNI ARPT FAIR      29  23  78 CALM      29.64R
BOULDER MUN AP FAIR      32  18  55 CALM      29.62F
CENTENNIAL     FAIR      31  21  66 S6        29.64S WCI  25
BROOMFIELD     MOCLDY    30  18  59 S7        29.64S WCI  23
FORT COLLINS   FAIR      25  18  74 CALM      29.64S
LONGMONT       CLOUDY    34  22  60 SW3       29.65F
$$

COZ041-046-047-076>085-087-088-231600-
...PIKES PEAK/PALMER DIVIDE AND SOUTHERN FOOTHILLS...

CITY           SKY/WX    TMP DP  RH WIND       PRES   REMARKS
COLO. SPRINGS  FAIR      36  18  48 SW17      29.69S
A. F. ACADEMY  FAIR      29  19  64 S5        29.68R WCI  24
SCHRIEVER AFB  NOT AVBL
ELLICOTT       FAIR     N/A N/A N/A W18G24    29.67S
FALCON         FAIR      31  18  58 SW9       29.70R WCI  23
FORT CARSON    NOT AVBL
LIMON          FAIR      21  18  88 N5        29.65S WCI  15
MONUMENT HILL  FAIR      34  21  60 SW14      29.68R WCI  24
TRINIDAD       FAIR      38  24  57 W14       29.77S
$$

COZ042>045-048>051-090-091-231600-
...NORTHEAST COLORADO...

CITY           SKY/WX    TMP DP  RH WIND       PRES   REMARKS
GREELEY ARPT   FAIR      26  21  81 N5        29.65F WCI  20
AKRON          FAIR      29  19  66 W18       29.62R WCI  16
BURLINGTON     FAIR      32  24  72 S12       29.65F WCI  23
WRAY           NOT AVBL
STERLING       FAIR      27  23  86 CALM      29.63R
HOLYOKE        FAIR      32  27  80 SE3       29.65F
FORT MORGAN    FAIR      24  22  91 W6        29.64S WCI  17
$$

COZ086-089-092>099-231600-
...SOUTHEAST COLORADO...

CITY           SKY/WX    TMP DP  RH WIND       PRES   REMARKS
PUEBLO         FAIR      28  21  75 CALM      29.70S
LA JUNTA       FAIR      30  23  75 VRB3      29.71S
LAMAR          FAIR      33  25  72 NW5       29.68F WCI  29
SPRINGFIELD      N/A     32  23  69 W7        29.71F WCI  26
$$




USA.gov is the U.S. government's official web portal to all federal, state and local government web resources and services.